Home   Weather   Wakefield   Past weeks

Flag for United Kingdom Past Weather in Wakefield, England, United Kingdom — Yesterday and Last 2 Weeks

Now
41 °F

Drizzle. Fog.


Feels Like: 41 °F
Forecast: N/A
Wind: 1 mph from North

Location: Leeds And Bradford

Current Time: Jan 16, 2017 at 7:11:56 pm

Latest Report: Jan 16, 2017 at 6:20 pm


Visibility: 0 mi

Pressure: 30.36 "Hg

Humidity: 100%

Dew Point: 41 °F

Location of WakefieldLocation

Past Weather in Wakefield — Graph

°F

Wakefield Temperature Yesterday

Maximum temperature yesterday: 48 °F (at 1:50 pm)
Minimum temperature yesterday: 36 °F (at 12:20 am)
Average temperature yesterday: 43 °F

High & Low Weather Summary for the Past Weeks

 TemperatureHumidityPressure
High50 °F (Jan 11, 2:50 am)100% (Jan 1, 7:20 pm)30.54 "Hg (Jan 1, 7:20 pm)
Low28 °F (Jan 5, 8:20 am)61% (Jan 4, 12:50 pm)29.39 "Hg (Jan 12, 4:20 pm)
Average39 °F90%30.09 "Hg
* Reported Jan 1 5:20 pm — Jan 16 5:50 pm, Wakefield, Weather by CustomWeather, © 2017

Note: Actual official high and low records may vary slightly from our data, if they occured in-between our weather recording intervals... More about our weather records

Advertising

Wakefield Weather History for the Previous 24 Hours

Scroll right to see more
 ConditionsComfort  
Time TempWeatherWind HumidityBarometerVisibility
5:50 pm
Mon, Jan 16
41 °FDrizzle. Fog.2 mph100%30.36 "Hg0 mi
5:20 pm41 °FDrizzle. Fog.1 mph100%30.33 "Hg0 mi
4:50 pm41 °FDrizzle. Fog.2 mph100%30.33 "Hg0 mi
4:20 pm41 °FDrizzle. Fog.2 mph100%30.33 "Hg0 mi
3:50 pm41 °FDrizzle. Fog.2 mph100%30.33 "Hg0 mi
3:20 pm41 °FDrizzle. Fog.3 mph100%30.33 "Hg0 mi
2:50 pm41 °FDrizzle. Fog.1 mph100%30.30 "Hg0 mi
2:20 pm41 °FDrizzle. Fog.2 mph100%30.30 "Hg0 mi
1:50 pm41 °FDrizzle. Fog.2 mph100%30.30 "Hg0 mi
1:20 pm41 °FDrizzle. Fog.2 mph100%30.30 "Hg0 mi
12:50 pm41 °FDrizzle. Fog.3 mph100%30.30 "Hg0 mi
12:20 pm41 °FDrizzle. Fog.2 mph100%30.30 "Hg0 mi
11:50 am41 °FDrizzle. Fog.5 mph100%30.30 "Hg0 mi
11:20 am41 °FDrizzle. Fog.5 mph100%30.30 "Hg0 mi
10:50 am41 °FDrizzle. Fog.5 mph100%30.30 "Hg0 mi
10:20 am43 °FDrizzle. Fog.3 mph100%30.30 "Hg0 mi
9:50 am43 °FDrizzle. Fog.5 mph100%30.27 "Hg0 mi
9:20 am46 °FDrizzle. Fog.2 mph100%30.27 "Hg1 mi
8:50 am45 °FDrizzle. Fog.7 mph100%30.27 "Hg1 mi
8:20 am45 °FDrizzle. Low clouds.7 mph100%30.27 "Hg1 mi
7:50 am45 °FPartly cloudy.7 mph100%30.27 "Hg2 mi
7:20 am45 °FPartly cloudy.8 mph100%30.24 "Hg1 mi
6:50 am45 °FPartly cloudy.8 mph100%30.24 "Hg1 mi
6:20 am45 °FPartly cloudy.8 mph100%30.24 "Hg1 mi
5:50 am45 °FDrizzle. Fog.8 mph100%30.24 "Hg2 mi
5:20 am45 °FDrizzle. Fog.8 mph100%30.24 "Hg1 mi
4:50 am45 °FDrizzle. Fog.6 mph100%30.24 "Hg1 mi
4:20 am45 °FDrizzle. Fog.5 mph100%30.24 "Hg1 mi
3:50 am45 °FDrizzle. Fog.3 mph100%30.24 "Hg1 mi
3:20 am45 °FDrizzle. Fog.2 mph100%30.24 "Hg1 mi
2:50 am45 °FDrizzle. Fog.No wind100%30.24 "Hg1 mi
2:20 am45 °FDrizzle. Fog.No wind100%30.24 "Hg2 mi
1:50 am45 °FSprinkles. Fog.1 mph100%30.24 "Hg1 mi
1:20 am45 °FSprinkles. Fog.2 mph100%30.24 "Hg1 mi
12:20 am45 °FFog.1 mph100%30.24 "Hg1 mi
11:50 pm
Sun, Jan 15
45 °FFog.3 mph100%30.24 "Hg1 mi
11:20 pm45 °FFog.3 mph100%30.24 "Hg1 mi
10:50 pm45 °FPartly cloudy.3 mph100%30.24 "Hg4 mi
10:20 pm46 °FPartly cloudy.3 mph93%30.24 "HgN/A
9:50 pm46 °FPartly cloudy.5 mph93%30.21 "HgN/A
9:20 pm46 °FLight rain. Partly cloudy.6 mph93%30.21 "HgN/A
8:50 pm46 °FPassing clouds.8 mph93%30.21 "HgN/A
8:20 pm46 °FPassing clouds.9 mph93%30.21 "HgN/A
7:50 pm46 °FPassing clouds.10 mph93%30.18 "HgN/A
7:20 pm46 °FPassing clouds.10 mph93%30.18 "HgN/A
Weather by CustomWeather, © 2017

See weather overviewHow to use our weather pages